This is the latest recevied weather packets stored in our database for station/object AC1IX. If no packets are shown the sender has not sent any weather packets the latest 10 day(s).
| Time | Temp. | Humidity | Pressure | Rain* | Wind** | Luminosity | Snow |
|---|---|---|---|---|---|---|---|
| 1777805454 | 1.11° C | 96% | 1010.9 hPa | 0 mm | - | 24 W/m² | - |
| 1777805152 | 1.11° C | 96% | 1010.5 hPa | 0 mm | - | 20 W/m² | - |
| 1777804849 | 1.11° C | 97% | 1010.7 hPa | 0 mm | - | 15 W/m² | - |
| 1777804547 | 1.11° C | 97% | 1010.9 hPa | 0 mm | - | 11 W/m² | - |
| 1777804244 | 0.56° C | 97% | 1010.4 hPa | 0 mm | - | 8 W/m² | - |
| 1777803941 | 0.56° C | 97% | 1010.6 hPa | 0 mm | - | 4 W/m² | - |
| 1777803638 | 0.56° C | 97% | 1010.5 hPa | 0 mm | - | 3 W/m² | - |
| 1777803334 | 0.56° C | 97% | 1010.5 hPa | 0 mm | - | 2 W/m² | - |
| 1777803032 | 0.56° C | 97% | 1010.5 hPa | 0 mm | - | 3 W/m² | - |
| 1777802729 | 0.56° C | 97% | 1010.7 hPa | 0 mm | - | 0 W/m² | - |
| 1777802427 | 0.56° C | 97% | 1010.6 hPa | 0 mm | - | 0 W/m² | - |
| 1777802124 | 0.56° C | 97% | 1010.5 hPa | 0 mm | - | 0 W/m² | - |
| 1777801822 | 0.56° C | 97% | 1010.7 hPa | 0 mm | - | 0 W/m² | - |
| 1777801519 | 0.56° C | 97% | 1010.4 hPa | 0 mm | - | 0 W/m² | - |
| 1777801215 | 0.56° C | 97% | 1010.3 hPa | 0 mm | - | 0 W/m² | - |
| 1777800913 | 0° C | 97% | 1010.5 hPa | 0 mm | - | 0 W/m² | - |
| 1777800609 | 0° C | 97% | 1010.3 hPa | 0 mm | - | 0 W/m² | - |
| 1777800305 | 0° C | 97% | 1010.7 hPa | 0 mm | - | 0 W/m² | - |
| 1777800001 | 0° C | 98% | 1010.5 hPa | 0 mm | - | 0 W/m² | - |
| 1777799697 | 0° C | 98% | 1010.6 hPa | 0 mm | - | 0 W/m² | - |
| 1777799395 | 0° C | 98% | 1010.5 hPa | 0 mm | - | 0 W/m² | - |
| 1777799090 | 0° C | 98% | 1010.4 hPa | 0 mm | - | 0 W/m² | - |
| 1777798785 | -0.56° C | 98% | 1010.6 hPa | 0 mm | - | 0 W/m² | - |
| 1777798482 | -0.56° C | 98% | 1010.6 hPa | 0 mm | - | 0 W/m² | - |
| 1777798179 | -0.56° C | 97% | 1011 hPa | 0 mm | - | 0 W/m² | - |
* Rain latest hour (hover to see other rain measurements)
** Current wind speed in m/s (hover to see current wind gust speed)